Stations météo

réclame
Mon MeteoGroup
Chieming, Allemagne (10982): Température de l'air & dewpoint: 13.06.2019 17:00:00 - 19.06.2019 17:00:00 (CEST)Chieming, Allemagne (10982): Température de l'air 5cm & Température de l'air -5cm: 13.06.2019 17:00:00 - 19.06.2019 17:00:00 (CEST)Chieming, Allemagne (10982): Température de l'air -20cm & Température de l'air -100cm: 13.06.2019 17:00:00 - 19.06.2019 17:00:00 (CEST)Chieming, Allemagne (10982): Vitesse du vent & gusts: 13.06.2019 17:00:00 - 19.06.2019 17:00:00 (CEST)Chieming, Allemagne (10982): Direction du vent: 13.06.2019 17:00:00 - 19.06.2019 17:00:00 (CEST)Chieming, Allemagne (10982): reduced air pressure: 13.06.2019 17:00:00 - 19.06.2019 17:00:00 (CEST)Chieming, Allemagne (10982): visibility: 13.06.2019 17:00:00 - 19.06.2019 17:00:00 (CEST)Chieming, Allemagne (10982): Ensoleillement: 13.06.2019 17:00:00 - 19.06.2019 17:00:00 (CEST)Chieming, Allemagne (10982): Quantités de précipitations: 13.06.2019 17:00:00 - 19.06.2019 17:00:00 (CEST)
Date & Time tt [°C] td [°C] tt 5cm [°C] tt -5cm [°C] tt -20cm [°C] tt -100cm [°C] ff [km/h] ff [knt] fx [km/h] fx [knt] dd ppp [hPa] vv [km] sd [min] rr [mm]
19.06.2019 17:00:00 28,0 9,5 32,8 37,0 25,9 16,7 6 3 13 7 SW 1008,6 15 55 0,0
19.06.2019 16:00:00 27,3 10,3 32,0 36,4 25,1 16,7 8 4 11 6 WSW 1009,1 16 47 0,0
19.06.2019 15:00:00 26,7 9,4 32,5 37,7 24,2 16,7 8 4 13 7 WSW 1009,6 14 60 0,0
19.06.2019 14:00:00 25,8 10,3 32,2 36,0 23,4 16,7 10 6 13 7 W 1010,3 11 60 0,0
19.06.2019 13:00:00 25,0 15,4 31,8 33,6 22,7 16,7 10 5 14 8 W 1010,7 11 60 0,0
19.06.2019 12:00:00 24,4 12,4 29,2 29,8 22,3 16,6 8 4 12 7 ENE 1011,1 15 36 0,0
19.06.2019 11:00:00 21,8 13,9 25,2 25,7 22,1 16,6 5 3 12 7 W 1011,9 20 0 0,0
19.06.2019 10:00:00 21,8 13,9 23,5 24,2 22,1 16,6 6 3 13 7 ENE 1011,8 17 0 0,0
19.06.2019 09:00:00 20,0 14,1 21,6 21,6 22,2 16,6 8 4 10 5 ENE 1012,4 18 0 0,0
19.06.2019 08:00:00 18,5 13,8 18,7 20,7 22,4 16,6 5 3 16 9 S 1012,7 20 0 0,0
19.06.2019 07:00:00 19,6 11,7 18,8 20,1 22,7 16,6 6 4 12 6 SW 1012,5 26 15 0,0
19.06.2019 06:00:00 18,0 13,4 17,1 19,9 23,1 16,6 4 2 8 5 NE 1013,0 14 3 0,0
19.06.2019 05:00:00 18,0 13,1 15,8 20,0 23,5 16,6 3 2 11 6 NNE 1012,6 19 0 0,0
19.06.2019 04:00:00 16,5 13,6 15,6 20,5 23,9 16,6 8 4 13 7 E 1013,3 27 0 0,0
19.06.2019 03:00:00 19,4 13,8 17,5 20,9 24,4 16,6 6 3 23 12 W 1013,2 20 0 0,0
19.06.2019 02:00:00 20,0 13,5 18,5 21,5 24,9 16,6 18 10 30 16 W 1013,5 29 0 0,0
19.06.2019 01:00:00 18,1 13,7 16,3 22,2 25,4 16,6 12 7 14 8 SSW 1013,7 18 0 0,0
19.06.2019 00:00:00 18,5 13,5 15,7 23,4 26,0 16,6 3 2 8 4 ENE 1013,3 16 0 0,0
18.06.2019 23:00:00 20,3 13,2 17,2 24,9 26,4 16,6 6 4 10 5 SSE 1012,7 23 0 0,0
18.06.2019 22:00:00 20,9 13,0 18,1 26,9 26,8 16,6 8 4 9 5 E 1012,5 17 0 0,0
18.06.2019 21:00:00 24,2 13,8 21,1 29,6 27,0 16,6 5 3 11 6 NE 1011,6 22 21 0,0
18.06.2019 20:00:00 26,4 12,7 27,0 32,4 26,9 16,5 6 4 12 7 NE 1011,0 18 60 0,0
18.06.2019 19:00:00 28,4 10,9 31,0 34,8 26,6 16,5 4 2 10 6 W 1010,6 21 60 0,0
18.06.2019 18:00:00 28,2 11,5 31,8 36,6 26,1 16,5 6 4 11 6 WSW 1010,7 38 60 0,0
18.06.2019 17:00:00 28,4 13,0 33,4 37,9 25,4 16,5 7 4 12 7 W 1010,9 29 60 0,0
18.06.2019 16:00:00 27,8 13,2 33,0 38,4 24,5 16,5 8 4 12 6 W 1011,5 17 60 0,0
18.06.2019 15:00:00 27,3 12,7 32,7 38,2 23,5 16,5 6 4 13 7 W 1012,1 18 60 0,0
18.06.2019 14:00:00 25,9 13,3 32,3 37,2 22,5 16,5 9 5 12 6 WSW 1012,8 12 60 0,0
18.06.2019 13:00:00 25,1 13,9 32,8 35,2 21,5 16,5 8 4 12 6 W 1013,5 15 60 0,0
18.06.2019 12:00:00 23,6 13,6 29,7 32,7 20,7 16,5 10 5 13 7 W 1014,1 17 60 0,0
18.06.2019 11:00:00 22,5 15,4 28,0 29,4 20,1 16,5 7 4 12 7 W 1014,7 9 60 0,0
18.06.2019 10:00:00 19,7 15,2 24,6 25,8 19,8 16,5 10 5 13 7 W 1015,6 9 60 0,0
18.06.2019 09:00:00 18,6 14,1 22,1 22,3 19,7 16,5 6 3 10 5 W 1016,0 14 60 0,0
18.06.2019 08:00:00 19,0 14,3 21,5 19,2 19,8 16,5 4 2 6 4 NNE 1015,5 14 60 0,0
18.06.2019 07:00:00 16,3 13,6 16,9 16,6 20,1 16,5 2 1 11 6 SW 1015,9 13 60 0,0
18.06.2019 06:00:00 13,5 12,7 12,6 15,8 20,5 16,5 9 5 10 6 E 1016,3 9 4 0,0
18.06.2019 05:00:00 13,6 12,8 12,0 16,2 20,9 16,5 5 3 10 5 N 1016,5 13 0 0,0
18.06.2019 04:00:00 13,8 12,8 12,5 16,8 21,3 16,5 7 4 10 6 E 1016,5 13 0 0,0
18.06.2019 03:00:00 13,9 12,9 12,8 17,5 21,7 16,5 7 4 10 5 E 1016,9 10 0 0,0
18.06.2019 02:00:00 14,7 13,0 13,0 18,3 22,1 16,5 4 2 8 4 NE 1017,0 14 0 0,0
18.06.2019 01:00:00 15,8 13,4 13,9 19,0 22,6 16,5 8 4 9 5 E 1016,8 18 0 0,0
18.06.2019 00:00:00 16,0 13,4 14,6 20,0 23,0 16,5 10 5 12 6 ENE 1016,8 16 0 0,0
17.06.2019 23:00:00 17,3 13,5 15,3 21,1 23,4 16,5 7 4 13 7 ENE 1016,5 19 0 0,0
17.06.2019 22:00:00 18,9 13,7 17,0 22,7 23,7 16,5 11 6 14 8 E 1016,3 32 0 0,0
17.06.2019 21:00:00 19,8 13,9 18,8 24,7 23,9 16,5 11 6 21 11 ENE 1015,8 18 14 0,0
17.06.2019 20:00:00 21,7 13,1 21,7 27,1 23,9 16,5 20 11 33 18 ENE 1015,5 16 54 0,0
17.06.2019 19:00:00 23,1 13,3 24,6 29,4 23,6 16,5 23 12 35 19 ENE 1015,1 8 60 0,0
17.06.2019 18:00:00 23,8 12,9 26,9 31,1 23,2 16,5 23 13 32 18 ENE 1014,9 8 58 0,0
17.06.2019 17:00:00 23,8 13,7 27,2 31,3 22,7 16,5 21 11 32 17 ENE 1015,4 5 56 0,0
17.06.2019 16:00:00 24,1 14,4 29,4 31,8 22,0 16,5 22 12 32 17 ENE 1015,8 6 59 0,0
17.06.2019 15:00:00 23,3 13,7 27,8 32,3 21,3 16,5 23 12 36 19 NE 1016,6 7 59 0,0
17.06.2019 14:00:00 23,4 14,0 29,1 31,1 20,5 16,5 21 12 35 19 E 1016,9 8 56 0,0
17.06.2019 13:00:00 22,0 12,7 26,0 29,1 19,9 16,5 21 11 31 17 ENE 1017,7 35 53 0,0
17.06.2019 12:00:00 21,3 14,0 25,2 26,9 19,4 16,5 21 12 31 17 E 1018,2 13 53 0,0
17.06.2019 11:00:00 20,6 14,1 23,5 24,5 19,0 16,5 19 10 34 18 ENE 1018,7 6 60 0,0
17.06.2019 10:00:00 19,8 13,7 22,8 22,8 18,7 16,5 18 10 25 13 ENE 1019,1 5 60 0,0
17.06.2019 09:00:00 18,7 13,3 21,7 20,8 18,6 16,5 9 5 14 7 NNE 1020,0 7 60 0,0
17.06.2019 08:00:00 18,4 13,4 18,3 17,8 18,7 16,5 0 0 9 5 N 1020,3 16 60 0,0
17.06.2019 07:00:00 14,1 12,7 14,2 15,2 18,9 16,5 5 3 8 4 ENE 1021,3 14 23 0,0
17.06.2019 06:00:00 12,5 11,7 11,5 14,8 19,2 16,5 7 4 9 5 ENE 1021,7 16 0 0,0
17.06.2019 05:00:00 12,7 12,1 11,6 15,3 19,5 16,5 6 3 9 5 E 1021,7 11 0 0,0
17.06.2019 04:00:00 13,6 12,7 12,3 16,1 19,7 16,5 5 3 8 5 E 1021,4 20 0 0,0
17.06.2019 03:00:00 15,2 13,2 13,8 17,0 20,0 16,5 2 1 5 3 SE 1021,2 21 0 0,0
17.06.2019 02:00:00 15,4 13,6 14,9 17,4 20,2 16,5 5 3 8 4 E 1021,4 22 0 0,0
17.06.2019 01:00:00 15,6 14,1 15,1 17,8 20,4 16,5 6 3 8 4 SE 1021,8 22 0 0,0
17.06.2019 00:00:00 16,4 14,2 15,7 18,1 20,6 16,5 5 3 8 4 S 1021,8 24 0 0,0
16.06.2019 23:00:00 17,3 13,8 16,3 18,6 20,8 16,5 6 3 9 5 WSW 1021,5 25 0 0,0
16.06.2019 22:00:00 17,4 14,0 16,8 19,2 21,0 16,5 3 1 8 4 SSW 1021,4 19 0 0,0
16.06.2019 21:00:00 17,7 13,5 17,2 19,8 21,2 16,5 5 3 9 5 S 1021,0 24 0 0,0
16.06.2019 20:00:00 18,2 14,8 18,0 20,7 21,3 16,5 4 2 6 3 SW 1020,7 20 0 0,0
16.06.2019 19:00:00 19,0 12,3 18,9 21,5 21,4 16,5 0 0 6 3 N 1020,2 25 0 0,0
16.06.2019 18:00:00 19,0 13,2 19,5 22,0 21,5 16,5 5 3 6 4 ESE 1020,3 21 0 0,0
16.06.2019 17:00:00 18,7 13,5 19,0 22,9 21,4 16,4 5 3 9 5 E 1020,3 22 0 0,0
16.06.2019 16:00:00 19,1 12,2 20,5 24,7 21,1 16,4 6 3 10 5 SW 1020,1 21 0 0,0
16.06.2019 15:00:00 19,3 11,9 23,3 26,0 20,7 16,4 8 5 16 9 WSW 1020,3 17 14 0,0
16.06.2019 14:00:00 18,6 12,1 23,4 25,5 20,4 16,4 9 5 14 8 W 1020,5 27 19 0,0
16.06.2019 13:00:00 17,7 12,4 20,8 22,8 20,3 16,4 10 5 20 11 W 1021,1 20 4 0,0
16.06.2019 12:00:00 16,4 12,7 17,5 21,8 20,1 16,4 15 8 27 14 W 1021,3 19 6 0,0
16.06.2019 11:00:00 16,5 12,2 18,4 20,2 20,2 16,4 16 8 22 12 W 1021,1 17 0 0,0
16.06.2019 10:00:00 16,4 12,5 18,2 19,0 20,3 16,4 14 8 23 12 W 1020,8 15 1 0,0
16.06.2019 09:00:00 15,7 11,7 16,1 17,6 20,5 16,3 13 7 23 12 W 1020,7 22 0 0,0
16.06.2019 08:00:00 15,6 11,5 15,5 17,1 20,8 16,3 13 7 25 14 WSW 1020,2 23 0 0,0
16.06.2019 07:00:00 15,3 11,9 15,1 16,8 21,1 16,3 16 9 26 14 W 1019,6 29 0 0,0
16.06.2019 06:00:00 15,4 12,2 14,7 16,8 21,5 16,3 16 8 31 17 W 1019,2 19 0 0,0
16.06.2019 05:00:00 15,3 12,7 14,6 17,0 22,0 16,3 17 9 37 20 WSW 1018,8 32 0 0,0
16.06.2019 04:00:00 14,9 12,6 14,3 17,3 22,4 16,3 28 15 41 22 WSW 1018,9 31 0 2,5
16.06.2019 03:00:00 14,0 13,6 13,6 18,7 22,8 16,3 26 14 49 27 WSW 1019,2 4,1 0 5,9
16.06.2019 02:00:00 15,8 12,9 15,2 19,8 23,2 16,3 31 17 60 33 W 1017,7 22 0 0,0
16.06.2019 01:00:00 16,1 14,9 14,5 20,3 23,5 16,2 3 2 8 5 ESE 1015,2 17 0 0,0
16.06.2019 00:00:00 17,4 15,3 15,5 21,0 23,9 16,2 5 3 10 5 E 1014,2 16 0 0,0
15.06.2019 23:00:00 18,5 15,6 17,0 21,8 24,3 16,2 4 2 20 11 N 1013,9 17 0 0,0
15.06.2019 22:00:00 18,4 15,8 17,2 22,7 24,7 16,2 8 5 21 11 E 1013,8 15 0 0,0
15.06.2019 21:00:00 19,4 15,8 18,3 24,1 25,0 16,2 14 8 25 14 SE 1013,3 16 0 0,0
15.06.2019 20:00:00 20,2 16,6 19,2 25,5 25,2 16,2 17 9 26 14 SE 1013,3 13 0 0,2
15.06.2019 19:00:00 20,2 17,8 18,9 28,0 25,2 16,2 16 9 22 12 SE 1013,5 9 0 0,6
15.06.2019 18:00:00 24,4 13,9 26,7 30,7 25,2 16,1 4 2 11 6 WNW 1012,4 16 25 0,0
15.06.2019 17:00:00 23,1 16,5 23,7 29,4 25,1 16,1 4 2 22 12 ESE 1012,8 15 2 0,1
15.06.2019 16:00:00 23,3 15,5 25,2 33,7 24,6 16,1 9 5 34 18 NNW 1013,1 11 21 0,0
15.06.2019 15:00:00 25,4 14,1 29,2 36,2 24,0 16,1 13 7 21 11 W 1012,5 16 52 0,0
15.06.2019 14:00:00 25,5 13,3 30,0 35,0 23,4 16,1 14 8 23 12 WNW 1012,8 11 49 0,0
15.06.2019 13:00:00 25,1 13,0 31,2 32,8 22,9 16,1 16 9 26 14 W 1012,7 10 44 0,0
15.06.2019 12:00:00 25,1 13,9 31,5 30,5 22,5 16,1 18 10 37 20 WNW 1012,3 5 57 0,0
15.06.2019 11:00:00 24,1 14,7 28,4 28,2 22,2 16,1 19 10 42 23 WNW 1012,3 6 60 0,0
15.06.2019 10:00:00 24,8 14,4 29,0 25,2 22,2 16,0 12 6 32 17 W 1011,1 10 40 0,0
15.06.2019 09:00:00 23,8 11,0 24,1 22,3 22,4 16,0 13 7 19 11 SSE 1010,1 7 5 0,0
15.06.2019 08:00:00 21,3 11,8 20,4 21,4 22,6 16,0 5 3 19 10 SSE 1010,6 16 0 0,0
15.06.2019 07:00:00 22,1 8,7 19,5 21,1 22,8 16,0 6 3 10 6 S 1010,2 17 0 0,0
15.06.2019 06:00:00 19,6 9,7 17,8 21,3 23,1 16,0 7 4 13 7 E 1010,3 19 0 0,0
15.06.2019 05:00:00 21,0 9,3 18,4 21,7 23,3 16,0 5 3 20 11 ENE 1009,9 17 0 0,0
15.06.2019 04:00:00 23,5 7,3 20,9 22,1 23,6 16,0 12 7 19 10 S 1009,7 22 0 0,0
15.06.2019 03:00:00 23,3 8,1 20,5 22,5 23,9 16,0 14 7 21 11 S 1010,1 24 0 0,0
15.06.2019 02:00:00 24,8 7,6 21,3 23,0 24,2 16,0 13 7 19 11 S 1009,6 20 0 0,0
15.06.2019 01:00:00 25,1 8,0 22,6 23,7 24,5 15,9 12 6 22 12 S 1009,6 22 0 0,0
15.06.2019 00:00:00 24,7 11,4 21,8 24,3 24,8 15,9 14 8 20 11 S 1009,9 23 0 0,0
14.06.2019 23:00:00 23,0 16,1 20,7 25,2 25,1 15,9 4 2 14 8 E 1009,8 16 0 0,0
14.06.2019 22:00:00 23,7 18,6 22,3 26,2 25,3 15,9 12 7 18 10 SE 1009,5 17 0 0,0
14.06.2019 21:00:00 24,7 19,2 23,2 27,9 25,5 15,9 14 7 18 10 E 1009,4 27 0 0,0
14.06.2019 20:00:00 26,3 19,3 25,9 29,8 25,5 15,9 16 8 25 14 E 1009,5 18 5 0,0
14.06.2019 19:00:00 28,1 18,8 28,9 31,5 25,3 15,9 24 13 34 19 ENE 1009,5 13 18 0,0
14.06.2019 18:00:00 28,5 18,1 29,1 33,6 25,0 15,9 20 11 31 17 ENE 1009,7 17 14 0,0
14.06.2019 17:00:00 30,6 17,5 34,6 35,8 24,4 15,9 20 11 30 16 ENE 1009,8 13 60 0,0
14.06.2019 16:00:00 30,7 17,2 35,3 36,3 23,7 15,9 19 11 31 17 ENE 1010,4 10 60 0,0
14.06.2019 15:00:00 30,4 17,2 35,9 35,8 23,0 15,8 20 11 29 16 ENE 1011,3 13 60 0,0
14.06.2019 14:00:00 29,3 15,5 34,5 34,3 22,4 15,8 19 10 32 17 ENE 1012,4 13 60 0,0
14.06.2019 13:00:00 28,3 14,2 33,1 32,4 21,8 15,8 25 14 34 19 E 1013,3 12 60 0,0
14.06.2019 12:00:00 26,6 15,2 31,3 30,1 21,3 15,8 21 12 37 20 ENE 1014,1 16 60 0,0
14.06.2019 11:00:00 24,8 14,5 28,7 27,8 20,9 15,8 24 13 38 20 E 1014,6 17 60 0,0
14.06.2019 10:00:00 23,4 14,4 26,0 25,3 20,8 15,8 25 13 40 21 E 1015,2 13 60 0,0
14.06.2019 09:00:00 21,5 14,2 23,2 22,7 20,8 15,8 20 11 27 15 E 1016,0 10 60 0,0
14.06.2019 08:00:00 19,5 14,4 21,3 20,1 21,0 15,8 9 5 12 7 ENE 1016,9 15 60 0,0
14.06.2019 07:00:00 16,4 12,9 17,3 18,2 21,3 15,8 3 2 12 6 W 1017,6 16 60 0,0
14.06.2019 06:00:00 13,0 11,3 12,1 17,7 21,7 15,8 9 5 11 6 E 1018,3 15 4 0,0
14.06.2019 05:00:00 14,9 12,3 12,0 18,2 22,1 15,8 4 2 7 4 SE 1017,9 20 0 0,0
14.06.2019 04:00:00 15,2 12,7 12,2 18,9 22,5 15,8 5 3 9 5 E 1017,5 23 0 0,0
14.06.2019 03:00:00 14,2 12,9 12,6 19,7 22,9 15,8 7 4 8 4 E 1017,8 15 0 0,0
14.06.2019 02:00:00 16,0 13,5 13,7 20,6 23,2 15,8 3 2 5 3 E 1017,6 18 0 0,0
14.06.2019 01:00:00 16,4 13,8 14,6 21,6 23,6 15,8 5 3 6 3 E 1017,3 17 0 0,0
14.06.2019 00:00:00 16,9 14,3 15,0 22,5 24,0 15,7 5 3 9 5 E 1016,8 25 0 0,0
13.06.2019 23:00:00 19,1 13,9 16,9 24,0 24,3 15,7 8 4 13 7 S 1015,8 18 0 0,0
13.06.2019 22:00:00 20,6 14,3 19,8 25,6 24,5 15,7 9 5 13 7 SW 1015,0 22 0 0,0
13.06.2019 21:00:00 20,9 15,0 21,1 27,0 24,7 15,7 5 3 13 7 W 1014,0 20 0 0,0
13.06.2019 20:00:00 21,5 14,4 22,1 28,9 24,7 15,7 10 5 18 10 WNW 1013,1 21 0 0,0
13.06.2019 19:00:00 21,9 13,9 23,3 31,7 24,4 15,7 15 8 21 11 NW 1012,6 19 18 0,0
13.06.2019 18:00:00 23,9 15,0 29,2 34,2 24,0 15,7 14 7 19 11 W 1011,9 14 60 0,0
13.06.2019 17:00:00 23,6 13,7 29,1 34,8 23,4 15,7 12 7 18 10 W 1011,8 15 60 0,0

tt = Température de l'air
td = dewpoint
tt 5cm = Température de l'air 5cm
tt -5cm = Température de l'air -5cm
tt -20cm = Température de l'air -20cm
tt -100cm = Température de l'air -100cm
ff = Vitesse du vent
fx = gusts
dd = Direction du vent
ppp = reduced air pressure
vv = visibility
sd = Ensoleillement
rr = Quantités de précipitations

stations d'obs. à proximité